EHI
0 0 0 0 0 1 1 1 0 0 0 0 0 0 0 0 1 1 0 2 13 30 40 47 55 51 34 18 8 4 2 0 0 0 0 0 0 0 0 0 0 0 0 0 0 0 0 0 0
0 0 0 0 0 0 0 0 0 0 0 0 0 0 0 0 1 1 1 5 20 37 42 48 58 57 42 25 14 8 4 1 0 0 0 0 0 0 0 0 0 0 0 0 0 0 0 0 0
0 0 0 0 0 0 0 0 0 0 0 0 0 0 0 0 1 1 1 8 24 36 40 52 67 66 52 37 24 14 7 2 0 0 0 0 0 0 0 0 0 0 0 0 0 0 0 0 0
0 0 0 0 0 0 0 0 0 0 0 0 0 0 0 3 7 7 5 9 18 25 34 55 74 73 60 47 34 22 11 3 0 0 0 0 0 0 0 0 0 0 0 0 0 0 0 0 0
0 0 0 0 0 0 0 0 0 0 0 0 0 0 1 10 21 19 9 7 12 20 29 52 75 77 65 54 43 28 14 5 1 0 0 0 0 0 0 0 0 0 0 0 0 0 0 0 0
0 0 0 0 0 0 0 0 0 0 0 0 0 0 2 14 26 21 8 4 9 18 26 41 63 71 66 57 45 29 17 9 4 1 1 1 0 0 0 0 0 0 0 1 1 0 0 0 0
0 0 0 0 0 0 0 0 0 0 0 0 0 0 2 9 17 15 8 5 7 12 19 29 39 47 50 45 35 25 16 11 6 3 2 2 1 0 0 0 0 0 1 2 2 2 1 1 1
0 0 0 0 0 0 0 0 0 0 0 0 0 0 1 4 12 20 20 15 10 7 10 17 20 22 22 21 19 16 11 7 5 3 3 3 2 1 0 0 1 1 3 5 5 5 5 4 4
0 0 0 0 0 0 0 0 0 1 2 1 0 0 1 5 17 35 44 37 23 10 7 10 12 9 6 6 7 7 5 4 3 3 3 3 2 1 0 0 1 2 4 7 10 11 10 7 6
0 0 0 0 0 0 0 0 0 2 4 4 2 1 3 8 21 43 60 59 41 19 8 7 8 7 5 4 4 4 4 3 3 4 4 4 3 2 2 2 2 3 5 9 13 16 15 13 11
0 0 0 0 0 0 0 0 1 2 4 5 4 5 7 9 17 35 57 66 54 30 13 8 7 7 6 6 6 7 6 5 4 6 7 8 7 6 5 4 3 4 6 11 16 19 21 20 17
0 0 0 0 0 0 0 0 1 2 3 5 6 9 10 9 11 22 42 59 58 41 21 9 7 7 7 7 9 11 11 10 11 13 14 14 14 12 9 6 4 5 8 15 20 20 20 18 16
0 0 0 0 0 0 0 0 0 1 4 7 10 13 14 12 13 17 30 47 56 50 32 18 15 16 15 16 19 21 21 22 24 25 25 25 23 19 13 8 5 6 10 15 18 15 12 11 10
0 0 0 0 0 0 0 0 0 2 8 16 20 20 20 20 20 21 26 36 49 54 48 40 39 41 40 40 42 42 38 37 39 40 39 38 35 28 20 12 9 8 9 11 11 8 6 5 5
0 0 0 0 0 0 0 1 1 4 13 24 29 30 30 30 31 31 29 33 45 56 60 62 64 69 69 67 67 65 57 51 51 50 48 46 42 35 25 15 10 9 7 7 6 4 3 2 1
0 0 0 0 0 0 0 0 1 7 18 30 37 39 40 42 44 43 40 41 47 55 61 66 73 78 80 77 75 70 62 54 50 47 44 42 38 31 22 14 9 6 4 3 3 2 1 0 0
0 0 0 0 0 0 0 1 3 13 26 38 46 51 53 53 53 52 50 47 47 51 56 61 67 71 72 68 63 56 48 42 38 34 31 27 24 21 15 10 6 3 2 1 1 0 0 0 0
0 0 0 0 0 0 1 3 10 22 35 47 55 58 58 54 49 47 48 46 44 47 51 53 55 57 55 50 45 38 30 25 21 19 17 15 13 12 9 6 4 2 1 0 0 0 0 0 0
0 0 0 0 0 0 2 6 14 26 37 46 53 55 52 46 39 36 38 41 41 42 44 41 40 41 38 35 32 26 17 11 8 7 7 7 6 5 4 3 2 2 2 1 0 0 0 0 0
0 0 0 0 0 0 2 5 11 20 31 39 44 46 44 38 31 29 30 33 35 36 35 31 28 26 25 24 23 17 11 7 4 3 3 3 2 2 1 1 1 1 2 1 0 0 0 0 0
0 0 0 0 0 0 0 2 5 13 23 32 37 39 37 31 25 24 24 24 26 28 28 25 20 17 16 16 17 15 13 10 6 4 2 1 1 1 0 0 0 0 1 1 0 0 0 0 0
0 0 0 0 0 0 0 0 3 9 17 24 27 28 25 20 17 17 17 16 17 19 19 17 14 12 12 13 15 16 16 13 9 5 3 3 3 2 1 1 1 0 0 0 0 0 0 0 0
0 0 0 0 0 0 0 0 2 6 11 14 14 12 10 9 9 9 9 8 9 11 10 9 8 8 8 10 12 12 12 11 9 5 4 3 3 2 2 2 2 1 0 0 0 0 0 0 0
0 0 0 0 0 0 0 0 1 3 5 5 4 3 2 2 2 2 2 2 3 4 4 4 5 4 4 4 5 5 6 6 5 4 3 2 1 1 1 1 1 1 1 1 1 0 0 0 0
0 0 0 0 0 0 0 0 0 1 1 1 2 2 1 0 0 0 0 0 1 1 1 2 2 1 1 1 2 3 3 3 3 2 1 1 0 0 0 0 0 0 1 1 1 1 0 0 0
0 0 0 0 0 0 0 0 0 0 0 0 1 2 2 1 0 0 0 0 0 0 0 1 1 0 0 1 1 1 1 2 2 1 0 0 0 0 0 0 0 0 0 1 1 1 0 0 0
0 0 0 0 0 0 0 0 0 0 0 0 0 1 2 1 0 0 0 0 0 0 0 0 0 0 0 1 1 0 0 1 1 0 0 0 0 0 0 0 0 0 0 0 0 0 0 0 0
0 0 0 0 0 0 0 0 0 0 0 0 0 1 1 0 0 0 0 0 0 0 0 0 0 0 0 0 0 0 0 0 0 0 0 0 0 0 0 0 0 0 0 0 0 0 0 0 0
0 0 0 0 0 0 0 0 0 0 0 0 0 0 0 0 0 0 0 0 0 0 0 0 0 0 0 0 0 0 0 0 0 0 0 0 0 0 0 0 0 0 0 0 0 0 0 0 0
0 0 0 0 0 0 0 0 0 0 0 0 0 0 0 0 0 0 0 0 0 0 0 0 0 0 0 0 0 0 0 0 0 0 0 0 0 0 0 0 0 0 0 0 0 0 0 0 0
Wind_Speed
9 8 4 2 2 1 4 5 1 4 5 6 10 10 8 5 4 4 5 16 19 17 14 17 20 20 20 19 18 17 16 16 16 15 14 14 13 13 12 12 12 11 11 11 10 9 9 9 9
6 6 2 1 2 2 5 3 5 4 5 8 9 8 8 6 8 10 7 16 21 18 13 15 21 20 20 19 18 17 16 16 15 15 14 13 13 12 12 11 11 11 10 10 9 9 8 8 7
5 5 2 2 1 2 5 3 3 4 2 4 5 5 6 7 9 7 10 18 18 15 11 15 22 21 20 19 18 17 16 16 15 15 14 13 13 12 12 11 11 10 10 9 9 8 8 8 7
4 2 2 2 3 5 2 5 5 5 5 5 7 6 4 5 7 12 18 19 17 12 10 15 22 21 20 19 18 17 16 16 15 15 14 13 13 12 12 11 11 10 10 10 9 9 8 8 8
2 3 2 1 4 5 2 2 2 2 3 3 7 6 3 3 16 21 19 19 18 13 10 14 20 20 19 18 18 17 16 16 15 15 14 13 13 12 12 12 11 11 10 10 10 10 10 10 9
2 3 2 3 5 4 3 2 4 4 3 3 6 6 3 9 18 19 18 17 17 16 12 12 20 20 19 18 18 17 16 16 15 15 14 14 13 13 12 12 12 12 12 12 11 11 11 11 11
3 2 3 4 4 4 3 2 4 1 0 1 6 6 4 9 15 17 16 15 15 15 13 10 11 15 19 19 18 17 16 16 16 15 15 14 14 13 13 13 13 13 13 13 13 13 13 13 12
5 3 2 2 3 5 2 2 3 3 2 2 4 9 8 11 12 15 14 13 13 13 12 10 9 9 9 11 17 17 17 16 16 16 15 15 15 14 14 13 13 15 15 15 15 15 15 14 14
2 2 4 5 5 5 4 4 4 4 3 0 2 6 10 13 14 15 12 10 11 12 10 10 10 8 8 8 13 15 16 16 15 14 16 14 7 7 9 13 15 17 17 17 17 17 16 15 14
5 4 9 8 6 5 6 6 6 5 6 2 1 6 12 14 15 16 16 15 14 14 12 11 11 11 9 9 8 6 7 7 8 6 8 6 5 6 9 11 17 18 18 19 19 18 16 13 6
3 6 8 9 7 5 6 5 5 9 7 11 14 15 15 13 13 15 15 15 15 14 13 12 12 11 11 7 6 5 4 4 6 7 7 5 5 4 6 4 7 10 13 10 10 11 8 7 6
4 8 7 6 4 3 5 5 5 9 12 15 18 20 17 15 14 13 13 13 12 14 14 14 12 11 11 8 6 6 5 5 6 7 8 6 4 4 4 3 4 4 4 5 5 4 6 7 8
4 6 7 7 6 3 2 4 5 8 7 9 12 14 15 15 13 10 10 12 12 13 13 13 12 11 9 7 6 7 6 6 7 6 7 7 5 5 4 3 3 3 2 3 4 4 5 6 7
6 8 10 8 6 4 3 4 1 5 6 11 13 13 12 12 10 8 7 8 9 11 11 11 11 10 9 8 6 6 6 5 5 5 6 7 5 4 3 3 2 2 2 3 3 4 4 4 4
6 8 11 8 6 5 4 6 6 6 7 11 13 12 10 8 9 9 8 6 6 7 7 9 11 9 9 7 6 4 4 4 4 4 5 6 5 4 3 2 2 2 2 2 1 2 2 3 3
6 5 6 11 6 8 1 8 12 4 9 8 9 9 6 5 5 5 5 3 5 5 4 5 8 8 6 5 4 3 3 3 2 2 3 5 5 4 3 2 1 2 1 1 1 1 1 2 3
4 3 8 12 8 6 3 6 6 2 8 7 7 7 7 5 5 5 6 4 3 5 5 3 4 6 6 4 2 2 2 2 2 2 3 3 4 4 3 1 1 1 0 0 1 1 1 2 3
6 5 6 8 8 3 1 1 1 5 10 9 9 9 9 9 7 7 8 7 7 5 4 5 2 2 3 3 3 2 2 1 2 3 3 4 3 4 3 1 1 1 1 0 0 1 1 2 2
7 5 6 6 6 5 6 6 6 7 9 9 9 8 9 9 6 6 8 8 9 7 5 6 4 1 1 1 2 2 1 1 1 2 4 5 5 4 4 3 2 1 1 1 1 1 1 1 1
3 3 4 6 6 5 7 9 9 11 11 8 7 7 8 8 7 7 8 8 8 8 5 3 4 3 2 2 2 2 2 2 2 1 3 4 5 5 4 4 3 2 2 1 1 1 0 1 0
3 1 3 4 6 7 6 7 8 8 11 11 10 8 6 7 8 8 8 8 8 6 5 3 2 1 0 1 1 1 2 2 1 0 1 2 3 4 4 5 4 4 3 2 2 2 2 1 1
3 3 2 3 4 4 4 1 4 5 10 12 11 10 9 8 8 8 10 10 9 7 6 5 4 4 4 4 3 3 2 0 1 1 2 2 2 2 3 4 4 4 3 3 3 3 3 2 1
3 2 3 2 1 2 4 3 3 4 7 8 8 9 8 8 8 8 9 8 8 8 7 6 6 6 6 5 4 4 3 1 1 1 1 2 2 2 2 3 3 3 3 4 4 3 3 3 3
2 5 6 6 5 3 2 2 2 3 1 4 6 7 6 6 5 5 5 5 6 6 6 6 6 5 5 5 5 5 4 3 3 3 3 2 2 2 2 2 2 2 3 4 4 4 5 4 4
6 6 6 7 6 4 1 4 2 1 4 5 5 4 3 3 2 2 3 3 3 4 3 4 4 4 3 4 4 3 3 2 2 2 2 3 2 2 3 2 2 2 3 4 4 4 5 5 5
2 6 6 3 4 4 2 1 1 1 3 5 4 3 2 0 1 1 1 1 2 2 2 2 2 2 2 2 2 2 2 1 1 2 2 2 2 3 3 3 3 3 3 4 4 4 5 5 5
1 1 5 6 1 1 0 1 0 1 2 3 3 2 1 0 1 1 1 0 1 1 1 1 1 0 1 2 2 2 2 2 2 3 2 2 2 3 3 4 4 4 4 4 4 4 5 5 6
2 2 5 4 1 2 2 1 2 3 2 2 1 1 1 0 1 1 1 1 1 2 2 1 2 2 2 2 3 2 3 3 3 3 3 3 4 4 4 4 4 5 4 5 4 4 5 5 6
4 4 4 3 4 3 1 3 2 3 3 2 2 1 1 2 3 4 4 3 3 2 2 2 2 3 3 4 4 4 4 4 4 4 4 4 4 4 5 5 5 5 5 5 5 6 5 6 6
3 2 2 2 2 2 2 2 2 1 2 2 1 2 3 4 5 5 5 4 3 3 4 4 4 5 6 5 5 5 6 5 5 6 6 6 5 5 6 6 6 6 6 5 5 6 6 6 7
Wind_Direction
154 151 150 150 78 28 274 269 14 33 52 58 79 89 89 76 142 162 134 143 140 147 154 153 152 152 153 153 151 149 147 145 144 143 141 140 139 138 138 138 138 139 140 139 138 137 137 137 136
154 153 144 100 72 356 289 309 24 34 116 114 83 81 82 73 89 108 123 146 143 147 151 153 154 154 155 156 155 154 152 151 150 149 149 147 147 147 147 147 147 147 148 149 151 151 151 150 150
168 173 141 99 46 234 275 317 354 348 110 106 86 57 78 112 114 125 146 144 141 146 150 158 156 157 158 159 159 158 157 156 156 156 156 155 156 156 156 157 158 159 161 163 165 166 167 167 169
153 131 65 77 253 254 258 314 342 1 21 57 98 68 62 124 129 137 143 145 143 147 152 160 158 159 160 161 162 162 162 162 163 163 163 164 165 166 166 168 170 172 175 177 180 181 183 185 188
108 111 71 313 256 267 276 349 328 337 6 52 94 87 45 52 121 136 146 149 148 150 156 161 160 162 163 164 165 166 167 168 169 169 171 173 175 177 178 179 182 186 189 192 193 195 196 199 203
121 102 93 264 269 265 277 30 38 33 68 90 97 103 100 128 135 148 152 153 153 154 157 161 164 164 166 168 170 172 173 174 175 176 179 181 184 187 189 191 194 197 201 204 206 207 208 210 212
159 138 215 241 268 276 256 91 83 85 282 207 132 109 133 154 154 154 153 151 152 155 158 163 166 169 171 173 175 177 179 180 182 184 186 190 193 197 201 204 207 209 212 214 215 217 218 218 219
161 116 277 257 253 262 243 126 132 150 246 163 141 141 168 182 157 150 148 147 151 157 163 165 166 168 171 176 182 184 186 188 190 192 195 198 202 206 210 213 218 220 221 222 222 223 224 225 225
131 87 254 240 229 246 202 167 174 151 122 221 234 168 166 157 144 142 144 144 155 161 170 170 171 172 173 177 189 190 193 196 197 200 204 204 209 213 218 223 225 229 230 230 229 227 228 229 231
123 180 239 237 239 225 205 184 165 134 124 146 148 122 140 149 151 152 159 164 168 171 177 179 178 178 177 187 188 190 197 200 202 201 207 205 205 214 223 231 235 237 237 236 233 230 229 231 229
188 216 254 268 256 211 195 205 174 149 176 187 170 159 158 160 162 161 167 173 175 174 178 182 183 181 183 191 181 186 199 199 208 209 210 211 212 220 232 235 245 243 239 236 237 233 225 222 219
271 269 269 275 280 222 204 199 193 189 202 190 170 163 164 167 173 171 167 173 174 176 184 184 183 181 188 192 184 183 193 198 205 211 210 208 214 219 223 228 239 237 230 220 221 221 223 224 224
279 287 302 295 297 277 248 230 210 216 205 169 159 159 169 173 172 170 166 167 171 179 187 184 180 182 188 189 184 185 195 200 202 201 205 202 204 213 214 224 232 237 227 218 221 224 228 226 226
284 304 304 298 301 296 302 296 285 234 179 162 166 172 175 173 166 163 165 166 172 176 178 181 177 175 175 180 181 178 185 193 193 194 196 195 196 200 194 214 230 237 227 215 212 221 225 226 225
316 331 324 305 304 287 5 323 279 233 171 167 171 170 166 169 162 168 170 162 168 174 166 176 174 167 169 170 169 163 164 159 161 170 176 174 176 175 177 193 223 242 242 235 229 232 222 238 239
346 351 312 291 290 282 292 266 272 214 155 164 167 166 149 150 141 139 118 122 137 139 143 182 177 160 159 157 153 139 130 125 135 146 150 160 165 163 158 174 223 239 248 238 224 229 233 251 250
349 301 281 293 287 271 210 238 269 182 143 132 124 126 116 101 82 87 97 95 112 137 140 168 158 158 153 144 122 107 107 113 129 143 142 146 149 144 137 173 228 228 169 300 254 218 212 250 266
261 270 284 288 300 340 86 194 68 97 109 106 107 109 104 90 70 76 86 88 87 75 86 103 105 128 117 117 105 89 82 106 162 160 148 149 157 150 139 154 197 145 123 342 272 251 240 239 256
247 269 285 290 310 36 52 60 45 56 81 96 99 103 96 86 73 68 81 92 96 84 59 66 64 38 116 120 126 131 173 191 188 178 165 165 165 160 161 166 185 169 164 207 238 211 263 275 278
272 321 321 317 341 44 59 52 43 45 49 57 74 81 87 82 73 58 59 63 75 92 103 105 154 193 198 171 157 164 172 202 196 191 182 174 166 171 176 176 185 184 175 199 221 156 176 274 78
344 2 334 325 352 24 66 31 34 42 49 48 47 53 65 80 75 59 58 60 71 81 100 138 168 157 356 79 88 77 53 37 36 346 258 222 184 192 192 192 190 194 183 195 208 185 170 220 275
307 305 354 13 38 346 46 40 355 24 41 40 38 38 40 45 52 56 59 57 55 54 59 56 53 49 36 34 60 87 101 135 245 240 254 262 232 227 228 221 209 201 194 200 210 187 176 174 231
258 316 18 11 63 24 17 97 313 14 33 33 38 41 31 33 46 57 60 63 62 59 57 56 52 44 37 38 48 57 52 2 314 325 318 301 289 269 250 241 223 216 210 212 212 198 193 188 198
16 30 22 36 57 13 305 122 311 346 16 53 45 40 34 35 40 58 65 69 68 67 64 62 58 42 38 43 42 41 36 14 359 351 339 323 307 296 296 269 236 226 218 219 218 213 208 206 210
37 60 19 357 3 272 308 105 241 326 89 98 99 74 41 20 20 61 66 72 80 80 79 77 76 54 35 40 38 32 26 21 6 339 333 334 328 315 305 307 258 242 235 231 221 219 223 215 215
275 131 150 215 244 273 18 107 218 121 96 99 106 121 109 40 342 76 127 118 119 118 109 93 82 57 20 33 9 356 8 2 319 310 314 309 292 287 298 309 291 269 253 245 232 229 228 224 223
327 269 177 154 267 35 314 119 191 120 84 93 105 119 141 299 350 345 339 91 144 149 153 142 123 62 323 316 306 311 320 308 295 295 292 286 286 292 310 305 297 285 266 253 242 236 236 231 229
115 153 66 70 58 322 308 236 227 193 190 147 152 183 172 55 325 294 279 256 217 190 187 163 167 206 248 266 266 269 268 267 270 279 289 290 292 297 302 302 292 284 277 267 254 251 246 240 238
355 24 77 103 150 150 279 293 325 179 182 178 207 211 232 260 263 262 251 239 235 237 240 248 254 257 261 258 255 264 267 268 270 269 268 268 273 282 285 284 285 279 271 265 258 253 250 244 244
39 8 106 124 298 135 142 273 347 162 173 168 213 255 262 264 264 264 267 273 280 280 274 267 263 261 258 254 255 259 263 264 263 260 261 262 267 270 272 273 275 275 274 267 261 261 258 249 247